{"data":{"norad_id":64716,"intl_designator":"2025-142W","name":"STARLINK-34548","alt_names":[],"object_type":"PAYLOAD","status":"ACTIVE","operator":null,"country":"US","launch_date":"2025-06-28","launch_site_code":"AFWTR","launch_vehicle":null,"mission":null,"orbit_class":"UNKNOWN","rcs_meters":null,"size_class":null,"mass_kg":null,"dimensions":null,"purposes":["comms"],"wikipedia_slug":null,"has_3d_model":false,"image_url":null,"decayed_at":null,"tle_current":{"epoch":"2026-09-18T18:31:43.442976Z","epoch_age_seconds":277243,"freshness":"STALE","line1":"1 64716U 25142W   26261.77203059  .00019194  00000+0  67028-3 0  9997","line2":"2 64716  70.0040 185.5948 0002009 276.2842  83.8104 15.29590443 68436","mean_motion":15.29590443,"eccentricity":0.0002009,"inclination_deg":70.004,"raan_deg":185.5948,"arg_perigee_deg":276.2842,"mean_anomaly_deg":83.8104,"bstar":0.00067028,"rev_number":6843,"period_min":94.142847622381,"perigee_km":475.65849694135,"apogee_km":478.41290533267,"semimajor_km":6855.172701137,"source":"CELESTRAK","updated_at":"2026-09-21T09:00:35.407266Z"}}}